This is the latest recevied weather packets stored in our database for station/object KF4ERV-4. If no packets are shown the sender has not sent any weather packets the latest 10 day(s).
| Time | Temp. | Humidity | Pressure | Rain* | Wind** | Luminosity | Snow |
|---|---|---|---|---|---|---|---|
| 1787477976 | 18.89° C | 40% | 1016.7 hPa | 0 mm | - | - | - |
| 1787477803 | 18.89° C | 40% | 1016.9 hPa | 0 mm | - | - | - |
| 1787477686 | 18.89° C | 40% | 1016.9 hPa | 0 mm | - | - | - |
| 1787477520 | 18.89° C | 40% | 1016.8 hPa | 0 mm | - | - | - |
| 1787477372 | 18.89° C | 40% | 1016.8 hPa | 0 mm | - | - | - |
| 1787477225 | 18.89° C | 40% | 1016.9 hPa | 0 mm | - | - | - |
| 1787477073 | 18.89° C | 40% | 1016.9 hPa | 0 mm | - | - | - |
| 1787476935 | 19.44° C | 40% | 1016.2 hPa | 0 mm | - | - | - |
| 1787476774 | 19.44° C | 40% | 1016.2 hPa | 0 mm | - | - | - |
| 1787476357 | 19.44° C | 40% | 1015.9 hPa | 0 mm | - | - | - |
| 1787476169 | 19.44° C | 40% | 1015.9 hPa | 0 mm | - | - | - |
| 1787476065 | 19.44° C | 42% | 1015.9 hPa | 0 mm | - | - | - |
| 1787475882 | 19.44° C | 42% | 1015.9 hPa | 0 mm | - | - | - |
| 1787475825 | 19.44° C | 45% | 1015.9 hPa | 0 mm | - | - | - |
| 1787475794 | 19.44° C | 45% | 1015.9 hPa | 0 mm | - | - | - |
| 1787475488 | 19.44° C | 49% | 1015.9 hPa | 0 mm | - | - | - |
| 1787475267 | 19.44° C | 49% | 1015.9 hPa | 0 mm | - | - | - |
| 1787475193 | 19.44° C | 50% | 1016 hPa | 0 mm | - | - | - |
| 1787474673 | 19.44° C | 58% | 1016.1 hPa | 0 mm | - | - | - |
| 1787474671 | 19.44° C | 52% | 1016 hPa | 0 mm | - | - | - |
| 1787474619 | 19.44° C | 58% | 1016.1 hPa | 0 mm | - | - | - |
| 1787474040 | 20° C | - | 1016 hPa | 0 mm | - | - | - |
| 1787473523 | 20° C | 4% | 1016 hPa | 0 mm | - | - | - |
| 1787473474 | 20° C | 4% | 1016 hPa | 0 mm | - | - | - |
| 1787473461 | 20° C | 11% | 1016 hPa | 0 mm | - | - | - |
* Rain latest hour (hover to see other rain measurements)
** Current wind speed in m/s (hover to see current wind gust speed)